WXM80 ListenWXM80 Stop

You find our weather info also at:

UK Metoffice

WeatherCloud

Weather Underground

Northeastern Weather Network

AWEKAS

Citizen Weather Observer Program (CWOP)

HAMweather, WeatherForYou, PWS Weather


Weather Underground History page Text

Daily Summary for August 2, 2017 Units:  Metric    English   Both
« Previous Day
Next Day »
Daily Weekly Monthly Yearly Custom
  High: Low: Average:
Temperature: 30.9 °C 20 °C 24.3 °C
Dew Point: 25.2 °C 18.7 °C 21.5 °C
Humidity: 96 % 65 % 85 %
Wind Speed: 9.5 km/h 0 km/h 1 km/h
Wind Gust: 16.7 km/h - -
Wind:- - SSW
Pressure: 1017.5 hPa 1014.4 hPa -
Precipitation: 6.35 mm    
Historical Graphs
 
 
Tabular Data for August 2, 2017
Time Temperature Dew Point Pressure Wind Wind Speed Wind Gust Humidity Rainfall Rate (Hourly)
00:04 24.1 °C 19.8 °C 1015.5 hPa WSW 0.6 km/h 3.7 km/h 77 % 0 mm
00:09 24.1 °C 20 °C 1015.5 hPa WSW 1 km/h 3.7 km/h 78 % 0 mm
00:12 24 °C 19.9 °C 1015.5 hPa SE 0.5 km/h 1.9 km/h 78 % 0 mm
00:17 24 °C 19.9 °C 1015.5 hPa SSE 0.2 km/h 1.9 km/h 78 % 0 mm
00:22 23.9 °C 20.1 °C 1015.5 hPa Calm     79 % 0 mm
00:27 23.9 °C 20.1 °C 1015.5 hPa Calm   1.6 km/h 79 % 0 mm
00:32 23.9 °C 20.2 °C 1015.5 hPa Calm     80 % 0 mm
00:37 23.8 °C 20.4 °C 1015.5 hPa WSW 0.3 km/h 1.9 km/h 81 % 0 mm
00:42 23.8 °C 20.5 °C 1015.1 hPa WSW 0.2 km/h 1.9 km/h 82 % 0 mm
00:47 23.8 °C 20.5 °C 1015.1 hPa WSW 0.3 km/h 1.9 km/h 82 % 0 mm
00:52 23.7 °C 20.7 °C 1015.5 hPa WSW 0.3 km/h 1.9 km/h 83 % 0 mm
00:57 23.7 °C 20.8 °C 1015.5 hPa South 0.3 km/h 1.9 km/h 84 % 0 mm
01:02 23.6 °C 20.7 °C 1015.5 hPa South 0.3 km/h 1.9 km/h 84 % 0 mm
01:07 23.6 °C 20.9 °C 1015.1 hPa Calm     85 % 0 mm
01:12 23.6 °C 20.9 °C 1015.5 hPa South 0.8 km/h 1.9 km/h 85 % 0 mm
01:17 23.6 °C 20.9 °C 1015.5 hPa South 0.6 km/h 1.6 km/h 85 % 0 mm
01:22 23.5 °C 21 °C 1015.5 hPa South 0.5 km/h 3.7 km/h 86 % 0 mm
01:27 23.5 °C 21 °C 1015.5 hPa Calm     86 % 0 mm
01:32 23.5 °C 21 °C 1015.1 hPa West 0.2 km/h 1.6 km/h 86 % 0 mm
01:37 23.4 °C 21.2 °C 1015.1 hPa Calm     87 % 0 mm
01:42 23.4 °C 21.2 °C 1015.5 hPa Calm     87 % 0 mm
01:47 23.4 °C 21.1 °C 1015.1 hPa WSW 0.2 km/h 1.9 km/h 87 % 0 mm
01:48 23.4 °C 21.2 °C 1015.1 hPa WSW 0.2 km/h 1.9 km/h 87 % 0 mm
01:53 23.4 °C 21.1 °C 1015.1 hPa Calm   1.6 km/h 87 % 0 mm
01:58 23.3 °C 21.1 °C 1015.1 hPa Calm     87 % 0 mm
02:03 23.3 °C 21.2 °C 1015.1 hPa Calm     88 % 0 mm
02:08 23.3 °C 21 °C 1015.1 hPa WSW 0.3 km/h 1.9 km/h 87 % 0 mm
02:13 23.3 °C 21 °C 1015.1 hPa WSW 0.3 km/h 1.9 km/h 87 % 0 mm
02:18 23.2 °C 20.9 °C 1015.1 hPa Calm   1.9 km/h 87 % 0 mm
02:23 23.2 °C 21.1 °C 1015.1 hPa Calm     88 % 0 mm
02:28 23.2 °C 21.1 °C 1015.5 hPa Calm     88 % 0 mm
02:33 23.1 °C 21 °C 1015.5 hPa Calm   1.9 km/h 88 % 0 mm
02:38 23.1 °C 20.9 °C 1015.1 hPa Calm   3.7 km/h 88 % 0 mm
02:44 23.1 °C 21.2 °C 1015.5 hPa Calm   1.9 km/h 89 % 0 mm
02:49 23 °C 21.1 °C 1015.5 hPa Calm     89 % 0 mm
02:54 22.9 °C 21.1 °C 1015.1 hPa WSW 0.2 km/h 1.9 km/h 89 % 0 mm
02:59 22.9 °C 21.1 °C 1015.1 hPa WSW 0.2 km/h 1.9 km/h 89 % 0 mm
03:04 22.9 °C 21 °C 1015.1 hPa Calm   1.9 km/h 89 % 0 mm
03:09 22.8 °C 20.9 °C 1015.1 hPa Calm     89 % 0 mm
03:14 22.8 °C 20.9 °C 1015.1 hPa Calm     89 % 0 mm
03:19 22.8 °C 20.9 °C 1015.1 hPa Calm     89 % 0 mm
03:24 22.7 °C 20.8 °C 1015.1 hPa Calm   1.6 km/h 89 % 0 mm
03:29 22.7 °C 20.8 °C 1015.1 hPa Calm   1.6 km/h 89 % 0 mm
03:34 22.7 °C 20.8 °C 1015.1 hPa Calm     89 % 0 mm
03:39 22.6 °C 20.7 °C 1015.1 hPa WSW 0.3 km/h 1.9 km/h 89 % 0 mm
03:44 22.6 °C 20.8 °C 1015.1 hPa WSW 0.2 km/h   90 % 0 mm
03:49 22.6 °C 20.8 °C 1015.1 hPa Calm     90 % 0 mm
03:54 22.5 °C 20.6 °C 1015.1 hPa Calm   1.9 km/h 89 % 0 mm
03:55 22.5 °C 20.8 °C 1015.1 hPa Calm   1.9 km/h 90 % 0 mm
04:00 22.4 °C 20.7 °C 1015.1 hPa Calm     90 % 0 mm
04:05 22.4 °C 20.7 °C 1015.1 hPa Calm     90 % 0 mm
04:10 22.4 °C 20.7 °C 1015.1 hPa Calm     90 % 0 mm
04:15 22.3 °C 20.6 °C 1015.1 hPa Calm     90 % 0 mm
04:20 22.3 °C 20.6 °C 1015.1 hPa Calm     90 % 0 mm
04:25 22.3 °C 20.6 °C 1015.1 hPa Calm     90 % 0 mm
04:30 22.2 °C 20.5 °C 1015.1 hPa Calm     90 % 0 mm
04:35 22.2 °C 20.4 °C 1015.1 hPa Calm     90 % 0 mm
04:38 22.2 °C 20.4 °C 1015.1 hPa Calm     90 % 0 mm
04:43 22.2 °C 20.4 °C 1015.1 hPa Calm     90 % 0 mm
04:48 22.1 °C 20.3 °C 1015.1 hPa Calm     90 % 0 mm
04:53 22 °C 20.3 °C 1015.1 hPa Calm     90 % 0 mm
04:58 21.9 °C 20.2 °C 1015.1 hPa Calm     90 % 0 mm
05:03 21.9 °C 20.2 °C 1015.5 hPa Calm     90 % 0 mm
05:08 21.8 °C 20.1 °C 1015.1 hPa Calm     90 % 0 mm
05:13 21.8 °C 20.1 °C 1015.1 hPa Calm     90 % 0 mm
05:18 21.8 °C 20.2 °C 1015.5 hPa Calm     91 % 0 mm
05:23 21.7 °C 20.1 °C 1015.5 hPa Calm     91 % 0 mm
05:29 21.6 °C 19.9 °C 1015.5 hPa Calm     90 % 0 mm
05:34 21.6 °C 20.1 °C 1015.5 hPa Calm     91 % 0 mm
05:39 21.6 °C 20 °C 1015.5 hPa Calm     91 % 0 mm
05:44 21.6 °C 20 °C 1015.5 hPa Calm     91 % 0 mm
05:49 21.5 °C 19.9 °C 1015.5 hPa Calm     91 % 0 mm
05:54 21.5 °C 20.2 °C 1015.8 hPa Calm     92 % 0 mm
05:59 21.4 °C 20.1 °C 1015.8 hPa Calm     92 % 0 mm
06:04 21.4 °C 20.1 °C 1015.8 hPa Calm     92 % 0 mm
06:09 21.4 °C 20.1 °C 1015.8 hPa Calm     92 % 0 mm
06:14 21.4 °C 20.1 °C 1015.8 hPa Calm     92 % 0 mm
06:19 21.4 °C 20.1 °C 1015.8 hPa Calm     92 % 0 mm
06:24 21.4 °C 20.1 °C 1015.8 hPa Calm     92 % 0 mm
06:29 21.4 °C 20.3 °C 1015.8 hPa Calm     93 % 0 mm
06:34 21.5 °C 20.3 °C 1015.8 hPa Calm     93 % 0 mm
06:39 21.5 °C 20.3 °C 1015.5 hPa Calm     93 % 0 mm
06:44 21.6 °C 20.6 °C 1015.8 hPa Calm     94 % 0 mm
06:49 21.6 °C 20.6 °C 1015.8 hPa Calm     94 % 0 mm
06:54 21.6 °C 20.6 °C 1015.8 hPa Calm     94 % 0 mm
06:59 21.6 °C 20.6 °C 1015.8 hPa Calm     94 % 0 mm
07:04 21.7 °C 20.7 °C 1015.8 hPa Calm     94 % 0 mm
07:09 21.7 °C 20.7 °C 1015.8 hPa Calm     94 % 0 mm
07:14 21.7 °C 20.7 °C 1015.8 hPa Calm     94 % 0 mm
07:20 21.8 °C 20.8 °C 1015.8 hPa Calm     94 % 0 mm
07:25 21.8 °C 20.8 °C 1015.8 hPa Calm     94 % 0 mm
07:30 21.9 °C 21.1 °C 1016.1 hPa Calm     95 % 0 mm
07:35 21.9 °C 21.1 °C 1016.1 hPa Calm     95 % 0 mm
07:40 22.1 °C 21.2 °C 1016.1 hPa Calm     95 % 0 mm
07:45 22.2 °C 21.3 °C 1016.1 hPa Calm     95 % 0 mm
07:50 22.3 °C 21.4 °C 1016.1 hPa Calm     95 % 0 mm
07:55 22.4 °C 21.8 °C 1016.1 hPa Calm     96 % 0 mm
08:00 22.5 °C 21.8 °C 1016.1 hPa Calm     96 % 0 mm
08:05 22.6 °C 21.9 °C 1016.1 hPa Calm     96 % 0 mm
08:10 22.8 °C 22.2 °C 1016.1 hPa Calm     96 % 0 mm
08:15 22.9 °C 22.3 °C 1016.1 hPa Calm     96 % 0 mm
08:20 23.2 °C 22.5 °C 1016.1 hPa NW 0.2 km/h 1.9 km/h 96 % 0 mm
08:25 23.3 °C 22.7 °C 1016.1 hPa Calm     96 % 0 mm
08:30 23.6 °C 22.9 °C 1016.5 hPa Calm     96 % 0 mm
08:35 23.6 °C 22.8 °C 1016.5 hPa Calm     95 % 0 mm
08:40 23.8 °C 22.8 °C 1016.5 hPa NW 0.5 km/h 1.9 km/h 94 % 0 mm
08:45 23.9 °C 22.6 °C 1016.1 hPa SE 1.1 km/h 1.9 km/h 92 % 0 mm
08:50 24.2 °C 22.7 °C 1016.1 hPa SE 0.2 km/h   91 % 0 mm
08:55 24.4 °C 22.7 °C 1016.1 hPa SE 0.5 km/h 3.2 km/h 90 % 0 mm
09:01 24.7 °C 22.6 °C 1016.1 hPa SE 0.5 km/h 4.8 km/h 88 % 0 mm
09:06 24.9 °C 22.4 °C 1016.1 hPa Calm   1.6 km/h 86 % 0 mm
09:11 25.1 °C 22.6 °C 1016.1 hPa Calm   3.2 km/h 86 % 0 mm
09:16 25.3 °C 22.8 °C 1016.1 hPa Calm   1.6 km/h 86 % 0 mm
09:21 25.5 °C 22.8 °C 1016.1 hPa Calm   3.2 km/h 85 % 0 mm
09:26 25.7 °C 23 °C 1016.1 hPa Calm   3.2 km/h 85 % 0 mm
09:31 25.9 °C 23.2 °C 1016.1 hPa Calm   1.6 km/h 85 % 0 mm
09:36 26.1 °C 22.9 °C 1016.5 hPa Calm   4.8 km/h 83 % 0 mm
09:41 26.2 °C 22.9 °C 1016.5 hPa Calm   1.6 km/h 82 % 0 mm
09:46 26.4 °C 23.1 °C 1016.5 hPa Calm   6.4 km/h 82 % 0 mm
09:48 26.4 °C 22.9 °C 1016.5 hPa WSW 2.1 km/h 7.4 km/h 81 % 0 mm
09:53 26.6 °C 23 °C 1016.5 hPa WSW 1.9 km/h 3.7 km/h 81 % 0 mm
09:58 26.7 °C 23 °C 1016.5 hPa WSW 1.4 km/h 5.6 km/h 80 % 0 mm
10:03 26.8 °C 23.1 °C 1016.5 hPa West 1.4 km/h 3.7 km/h 80 % 0 mm
10:08 27 °C 23.3 °C 1016.5 hPa Calm     80 % 0 mm
10:13 27.1 °C 23.6 °C 1016.5 hPa SSE 0.5 km/h 1.9 km/h 81 % 0 mm
10:18 27.2 °C 23.7 °C 1016.5 hPa NNW 2.4 km/h 5.6 km/h 81 % 0 mm
10:23 27.3 °C 23.8 °C 1016.5 hPa North 1.4 km/h 3.7 km/h 81 % 0 mm
10:28 27.3 °C 23.6 °C 1016.5 hPa NNE 1.3 km/h 5.6 km/h 80 % 0 mm
10:33 27.4 °C 23.8 °C 1016.5 hPa East 3.2 km/h 5.6 km/h 81 % 0 mm
10:38 27.6 °C 24.1 °C 1016.5 hPa NNE 0.6 km/h 5.6 km/h 81 % 0 mm
10:43 27.8 °C 24 °C 1016.5 hPa North 3.2 km/h 5.6 km/h 80 % 0 mm
10:48 28.2 °C 24.7 °C 1016.5 hPa NNE 1.6 km/h 4.8 km/h 81 % 0 mm
10:53 28.8 °C 24.8 °C 1016.5 hPa NNE 6.4 km/h 8 km/h 79 % 0 mm
10:58 28.9 °C 24.1 °C 1016.5 hPa NNW 1.3 km/h 5.6 km/h 75 % 0 mm
11:03 28.9 °C 24.3 °C 1016.5 hPa NNW 2.4 km/h 5.6 km/h 76 % 0 mm
11:08 29.1 °C 24.6 °C 1016.5 hPa NNE 1.4 km/h 3.7 km/h 77 % 0 mm
11:13 29.1 °C 24.2 °C 1016.5 hPa NNE 1.1 km/h 3.7 km/h 75 % 0 mm
11:18 29.2 °C 24.3 °C 1016.5 hPa Calm   1.9 km/h 75 % 0 mm
11:23 29.3 °C 24.2 °C 1016.5 hPa NE 1 km/h 3.7 km/h 74 % 0 mm
11:28 29.5 °C 24.4 °C 1016.5 hPa ENE 2.7 km/h 5.6 km/h 74 % 0 mm
11:34 29.6 °C 23.9 °C 1016.5 hPa NNE 1.3 km/h 5.6 km/h 72 % 0 mm
11:39 29.6 °C 24.2 °C 1016.5 hPa NW 0.8 km/h 5.6 km/h 73 % 0 mm
11:44 29.7 °C 24.8 °C 1016.5 hPa NNE 1.8 km/h 3.7 km/h 75 % 0 mm
11:49 29.8 °C 24.4 °C 1016.5 hPa NNE 2.9 km/h 7.4 km/h 73 % 0 mm
11:54 30.1 °C 24.4 °C 1016.5 hPa NNW 4.5 km/h 5.6 km/h 72 % 0 mm
11:59 30.3 °C 24.7 °C 1016.5 hPa NNE 0.8 km/h 5.6 km/h 72 % 0 mm
12:04 30.4 °C 25.1 °C 1016.5 hPa NE 2.1 km/h 5.6 km/h 73 % 0 mm
12:09 30.6 °C 24.7 °C 1016.1 hPa NNE 4.2 km/h 9.3 km/h 71 % 0 mm
12:14 30.8 °C 24.9 °C 1016.1 hPa ENE 1.4 km/h 3.7 km/h 71 % 0 mm
12:19 30.9 °C 24.8 °C 1016.1 hPa ENE 1.9 km/h 6.4 km/h 70 % 0 mm
12:24 30.8 °C 24.7 °C 1016.1 hPa North 4.2 km/h 6.4 km/h 70 % 0 mm
12:29 30.9 °C 25.1 °C 1016.1 hPa North 1.3 km/h 1.9 km/h 71 % 0 mm
12:34 30.8 °C 24.2 °C 1015.8 hPa NE 1.6 km/h 1.9 km/h 68 % 0 mm
12:39 30.4 °C 24.3 °C 1015.8 hPa ENE 1 km/h 3.2 km/h 70 % 0 mm
12:45 30.4 °C 24.8 °C 1015.8 hPa East 0.8 km/h 1.9 km/h 72 % 0 mm
12:50 30.7 °C 24.6 °C 1015.5 hPa North 1.8 km/h 1.9 km/h 70 % 0 mm
12:55 30.8 °C 24.7 °C 1015.5 hPa NE 0.2 km/h 1.9 km/h 70 % 0 mm
13:00 30.7 °C 24.1 °C 1015.5 hPa NE 2.4 km/h 5.6 km/h 68 % 0 mm
13:05 30.4 °C 24.6 °C 1015.5 hPa NE 0.2 km/h 1.9 km/h 71 % 0 mm
13:10 29.9 °C 24.5 °C 1015.5 hPa NE 1.1 km/h 3.7 km/h 73 % 0 mm
13:15 29.4 °C 24.9 °C 1015.5 hPa ENE 1.3 km/h 3.7 km/h 77 % 0.25 mm
13:20 29 °C 25 °C 1015.5 hPa North 8.2 km/h 9.7 km/h 79 % 1.02 mm
13:25 28.2 °C 24 °C 1015.5 hPa NW 4 km/h 13 km/h 78 % 1.52 mm
13:30 27.9 °C 23.9 °C 1015.5 hPa Calm     79 % 1.78 mm
13:35 27.9 °C 25 °C 1015.1 hPa NW 0.2 km/h 1.9 km/h 84 % 2.03 mm
13:40 27.8 °C 24.8 °C 1015.1 hPa Calm     84 % 2.29 mm
13:45 27.6 °C 24.8 °C 1015.1 hPa Calm   1.9 km/h 85 % 2.54 mm
13:50 27.3 °C 24.6 °C 1015.1 hPa Calm     85 % 2.79 mm
13:55 27.3 °C 25.1 °C 1015.1 hPa Calm   1.9 km/h 88 % 3.05 mm
14:00 27.3 °C 25.2 °C 1015.1 hPa NW 0.2 km/h 1.9 km/h 88 % 3.05 mm
14:05 27.2 °C 24.9 °C 1015.1 hPa Calm     87 % 3.3 mm
14:10 27.2 °C 24.9 °C 1015.1 hPa Calm     87 % 3.3 mm
14:12 27.2 °C 24.8 °C 1015.1 hPa Calm     87 % 3.3 mm
14:17 27.1 °C 24.6 °C 1015.5 hPa NW 0.5 km/h 1.6 km/h 86 % 3.05 mm
14:22 27 °C 24.3 °C 1015.5 hPa South 2.3 km/h 3.7 km/h 85 % 2.29 mm
14:27 26.8 °C 23.5 °C 1015.5 hPa WSW 7.6 km/h 16.7 km/h 82 % 2.29 mm
14:32 26.6 °C 23.3 °C 1015.5 hPa WNW 3.1 km/h 13 km/h 82 % 1.78 mm
14:37 26.5 °C 22.9 °C 1015.5 hPa West 4 km/h 14.8 km/h 81 % 1.52 mm
14:42 26.6 °C 23.4 °C 1015.1 hPa West 0.5 km/h 1.9 km/h 83 % 1.52 mm
14:47 26.7 °C 22.9 °C 1015.1 hPa West 5.6 km/h 8 km/h 80 % 1.52 mm
14:52 26.8 °C 22.8 °C 1015.1 hPa WNW 0.6 km/h 1.9 km/h 79 % 1.27 mm
14:58 26.9 °C 22.8 °C 1015.1 hPa Calm   1.9 km/h 78 % 1.27 mm
15:03 27.1 °C 23.1 °C 1014.8 hPa WNW 0.2 km/h   79 % 1.27 mm
15:08 27.3 °C 23.5 °C 1014.8 hPa Calm   1.9 km/h 80 % 1.02 mm
15:13 27.4 °C 23.3 °C 1014.8 hPa Calm   3.7 km/h 78 % 1.02 mm
15:18 27.7 °C 23.7 °C 1014.8 hPa West 1.9 km/h 5.6 km/h 79 % 0.76 mm
15:23 28.1 °C 24.1 °C 1014.4 hPa WSW 5 km/h 9.3 km/h 79 % 0.76 mm
15:28 28.4 °C 23.8 °C 1014.4 hPa SW 5.8 km/h 9.3 km/h 76 % 0.51 mm
15:33 28.7 °C 23.2 °C 1014.4 hPa SSW 4.2 km/h 9.3 km/h 72 % 0.76 mm
15:38 29 °C 22.2 °C 1014.4 hPa SE 1.6 km/h 11.1 km/h 67 % 0.76 mm
15:43 29.2 °C 22.4 °C 1014.4 hPa SSW 3.7 km/h 7.4 km/h 67 % 0.51 mm
15:48 29.3 °C 22.8 °C 1014.4 hPa WSW 2.3 km/h 8 km/h 68 % 0.51 mm
15:53 29.3 °C 23 °C 1014.4 hPa SE 1.1 km/h 5.6 km/h 69 % 0.51 mm
15:58 29.1 °C 22.1 °C 1014.4 hPa SSE 1.3 km/h 5.6 km/h 66 % 0.25 mm
16:03 28.9 °C 21.7 °C 1014.4 hPa SE 3.7 km/h 14.8 km/h 65 % 0.25 mm
16:08 28.8 °C 21.8 °C 1014.8 hPa SSW 0.2 km/h 1.9 km/h 66 % 0.25 mm
16:13 28.7 °C 22.2 °C 1014.8 hPa SSW 0.2 km/h 1.9 km/h 68 % 0.25 mm
16:19 28.6 °C 21.8 °C 1015.1 hPa SSE 0.8 km/h 5.6 km/h 67 % 0.25 mm
16:24 28.4 °C 22.2 °C 1015.1 hPa WSW 2.3 km/h 4.8 km/h 69 % 0.25 mm
16:29 28.3 °C 22.1 °C 1015.5 hPa SW 5.3 km/h 9.3 km/h 69 % 0.25 mm
16:34 28.3 °C 22.1 °C 1015.5 hPa SSW 3.7 km/h 11.1 km/h 69 % 0 mm
16:39 28.3 °C 22.3 °C 1015.8 hPa WSW 1.9 km/h 9.3 km/h 70 % 0 mm
16:44 28.2 °C 22.2 °C 1015.8 hPa WSW 0.6 km/h 3.7 km/h 70 % 0 mm
16:49 28.2 °C 22.2 °C 1015.8 hPa West 0.2 km/h 3.7 km/h 70 % 0 mm
16:54 28 °C 21.6 °C 1015.8 hPa SW 1.4 km/h 11.1 km/h 68 % 0 mm
16:59 27.9 °C 21.7 °C 1015.8 hPa SW 4 km/h 14.8 km/h 69 % 0 mm
17:04 27.9 °C 21.9 °C 1015.8 hPa SW 3.2 km/h 8 km/h 70 % 0 mm
17:09 27.8 °C 22.3 °C 1015.8 hPa SSW 5.3 km/h 9.3 km/h 72 % 0 mm
17:14 27.8 °C 22.5 °C 1016.1 hPa WNW 2.4 km/h 13 km/h 73 % 0 mm
17:19 27.6 °C 22.3 °C 1016.1 hPa East 2.7 km/h 13 km/h 73 % 0 mm
17:24 27.4 °C 22.1 °C 1016.1 hPa WSW 1.1 km/h 9.3 km/h 73 % 0 mm
17:29 27.1 °C 21.6 °C 1016.5 hPa WNW 6.4 km/h 14.8 km/h 72 % 0 mm
17:34 26.8 °C 21.3 °C 1016.5 hPa West 9.5 km/h 16.7 km/h 72 % 0 mm
17:39 26.4 °C 21 °C 1016.5 hPa WNW 5.1 km/h 9.3 km/h 72 % 0 mm
17:44 26.2 °C 20.9 °C 1016.5 hPa NNW 3.9 km/h 9.3 km/h 73 % 0 mm
17:49 26 °C 21.2 °C 1016.8 hPa WNW 0.3 km/h 3.7 km/h 75 % 0 mm
17:54 25.8 °C 21.3 °C 1016.5 hPa WNW 4 km/h 6.4 km/h 76 % 0 mm
17:59 25.6 °C 21.4 °C 1016.8 hPa WNW 6 km/h 9.3 km/h 78 % 0 mm
18:04 25.3 °C 21.8 °C 1016.5 hPa WNW 4.7 km/h 9.3 km/h 81 % 0 mm
18:09 25.2 °C 21.9 °C 1016.8 hPa West 1.1 km/h 4.8 km/h 82 % 0 mm
18:14 24.9 °C 21.8 °C 1016.8 hPa WSW 3.9 km/h 7.4 km/h 83 % 0 mm
18:20 24.7 °C 21.8 °C 1016.8 hPa WNW 2.4 km/h 8 km/h 84 % 0.25 mm
18:25 24.3 °C 21.7 °C 1017.2 hPa WSW 1.4 km/h 7.4 km/h 85 % 0.25 mm
18:26 24.3 °C 21.6 °C 1017.2 hPa WSW 2.7 km/h 5.6 km/h 85 % 0.25 mm
18:31 24.1 °C 21.6 °C 1017.2 hPa West 0.2 km/h 1.6 km/h 86 % 0.25 mm
18:36 23.9 °C 21.4 °C 1017.2 hPa West 3.2 km/h 9.3 km/h 86 % 0.25 mm
18:41 23.8 °C 21.3 °C 1016.8 hPa Calm   3.7 km/h 86 % 0.25 mm
18:46 23.6 °C 21.1 °C 1016.8 hPa WNW 1.6 km/h 7.4 km/h 86 % 0.25 mm
18:51 23.4 °C 20.9 °C 1016.8 hPa Calm   1.6 km/h 86 % 0.51 mm
18:56 23.3 °C 21 °C 1016.8 hPa Calm   1.9 km/h 87 % 0.51 mm
19:01 23.1 °C 20.8 °C 1016.8 hPa NW 0.6 km/h 3.7 km/h 87 % 0.51 mm
19:06 23 °C 20.7 °C 1016.8 hPa NW 0.2 km/h 1.9 km/h 87 % 0.51 mm
19:11 22.8 °C 20.6 °C 1016.8 hPa NE 0.6 km/h   87 % 0.51 mm
19:16 22.7 °C 20.2 °C 1017.2 hPa NE 0.6 km/h 3.7 km/h 86 % 0.51 mm
19:21 22.6 °C 20.3 °C 1016.8 hPa NNE 2.3 km/h 5.6 km/h 87 % 0.25 mm
19:26 22.4 °C 20.2 °C 1016.8 hPa NE 0.2 km/h 3.7 km/h 87 % 0.51 mm
19:31 22.3 °C 20.2 °C 1016.8 hPa ENE 0.2 km/h 1.9 km/h 88 % 0.51 mm
19:36 22.2 °C 20.1 °C 1016.5 hPa ENE 0.8 km/h 1.9 km/h 88 % 0.51 mm
19:41 22.1 °C 20.4 °C 1016.5 hPa ESE 0.6 km/h 3.7 km/h 90 % 0.51 mm
19:47 21.9 °C 20.4 °C 1016.5 hPa ESE 1.1 km/h 3.7 km/h 91 % 0.51 mm
19:52 21.8 °C 20.3 °C 1016.5 hPa ESE 1.3 km/h 3.7 km/h 91 % 0.25 mm
19:57 21.7 °C 20.1 °C 1016.5 hPa ESE 2.3 km/h 3.7 km/h 91 % 0.25 mm
20:02 21.5 °C 19.9 °C 1016.5 hPa ESE 0.5 km/h 3.7 km/h 91 % 0.51 mm
20:07 21.4 °C 19.8 °C 1016.5 hPa ESE 0.2 km/h 1.9 km/h 91 % 0.51 mm
20:11 21.3 °C 19.8 °C 1016.5 hPa Calm   1.9 km/h 91 % 0.51 mm
20:16 21.2 °C 19.7 °C 1016.5 hPa Calm   1.9 km/h 91 % 0.51 mm
20:17 21.2 °C 19.7 °C 1016.5 hPa Calm   1.9 km/h 91 % 0.51 mm
20:22 21.1 °C 19.6 °C 1016.5 hPa ESE 0.2 km/h 1.9 km/h 91 % 0.51 mm
20:27 21.1 °C 19.3 °C 1016.5 hPa Calm     90 % 0.25 mm
20:32 20.9 °C 19.2 °C 1016.5 hPa Calm     90 % 0.25 mm
20:37 20.9 °C 19 °C 1016.5 hPa SE 0.8 km/h 3.7 km/h 89 % 0.25 mm
20:42 20.9 °C 19 °C 1016.5 hPa Calm     89 % 0.25 mm
20:47 20.8 °C 18.9 °C 1016.5 hPa SE 0.3 km/h 1.9 km/h 89 % 0.25 mm
20:52 20.8 °C 18.9 °C 1016.5 hPa Calm     89 % 0.51 mm
20:57 20.8 °C 19.1 °C 1016.8 hPa SE 0.2 km/h 1.6 km/h 90 % 0.51 mm
21:02 20.7 °C 18.8 °C 1016.8 hPa SE 0.2 km/h 1.9 km/h 89 % 0.25 mm
21:07 20.6 °C 18.7 °C 1016.8 hPa Calm     89 % 0.25 mm
21:12 20.6 °C 18.7 °C 1016.8 hPa Calm     89 % 0.25 mm
21:17 20.6 °C 18.9 °C 1016.8 hPa Calm     90 % 0.25 mm
21:22 20.6 °C 18.8 °C 1016.8 hPa Calm     90 % 0.25 mm
21:27 20.6 °C 18.8 °C 1017.2 hPa Calm     90 % 0.25 mm
21:32 20.6 °C 18.8 °C 1017.2 hPa Calm     90 % 0.25 mm
21:37 20.5 °C 18.8 °C 1017.2 hPa Calm     90 % 0.25 mm
21:43 20.5 °C 18.8 °C 1017.2 hPa Calm     90 % 0.25 mm
21:48 20.5 °C 19 °C 1017.2 hPa SE 0.3 km/h 1.9 km/h 91 % 0.51 mm
21:53 20.4 °C 18.9 °C 1017.2 hPa Calm     91 % 0.25 mm
21:58 20.4 °C 18.9 °C 1017.2 hPa Calm     91 % 0.25 mm
22:03 20.4 °C 18.9 °C 1017.2 hPa Calm     91 % 0.25 mm
22:08 20.4 °C 19.1 °C 1017.2 hPa Calm     92 % 0.25 mm
22:13 20.4 °C 19.1 °C 1017.2 hPa Calm     92 % 0.25 mm
22:18 20.3 °C 19 °C 1017.2 hPa Calm     92 % 0.25 mm
22:23 20.3 °C 19 °C 1017.2 hPa Calm     92 % 0.25 mm
22:28 20.3 °C 19 °C 1017.2 hPa Calm     92 % 0.25 mm
22:33 20.3 °C 18.9 °C 1017.2 hPa Calm     92 % 0.25 mm
22:38 20.3 °C 18.9 °C 1017.2 hPa Calm     92 % 0.25 mm
22:43 20.3 °C 18.9 °C 1017.2 hPa Calm     92 % 0.25 mm
22:49 20.2 °C 18.9 °C 1017.5 hPa Calm     92 % 0 mm
22:54 20.2 °C 18.8 °C 1017.5 hPa West 1.8 km/h 5.6 km/h 92 % 0 mm
22:59 20.2 °C 18.8 °C 1017.5 hPa West 0.5 km/h 1.9 km/h 92 % 0 mm
23:04 20.2 °C 18.8 °C 1017.5 hPa Calm     92 % 0.25 mm
23:09 20.1 °C 18.8 °C 1017.5 hPa Calm   1.9 km/h 92 % 0.25 mm
23:15 20.1 °C 18.8 °C 1017.5 hPa Calm     92 % 0.25 mm
23:20 20.1 °C 18.7 °C 1017.5 hPa Calm   1.6 km/h 92 % 0.25 mm
23:25 20.1 °C 18.9 °C 1017.5 hPa Calm     93 % 0.25 mm
23:26 20.1 °C 18.9 °C 1017.5 hPa Calm     93 % 0.25 mm
23:27 20.1 °C 18.9 °C 1017.5 hPa Calm     93 % 0.25 mm
23:32 20.1 °C 18.9 °C 1017.5 hPa Calm     93 % 0.25 mm
23:33 20.1 °C 18.9 °C 1017.5 hPa Calm     93 % 0.25 mm
23:36 20.1 °C 18.9 °C 1017.5 hPa Calm     93 % 0.25 mm
23:41 20.1 °C 18.9 °C 1017.5 hPa Calm     93 % 0.25 mm
23:46 20.1 °C 18.9 °C 1017.5 hPa Calm     93 % 0.25 mm
23:51 20.1 °C 18.9 °C 1017.5 hPa Calm     93 % 0.25 mm
23:56 20 °C 18.8 °C 1017.5 hPa Calm     93 % 0.25 mm
Crab Meadow Weather
Compliments of Weather Underground - 3 mb

Script developed by  Jim McMurry - jmcmurry@mwt.net Adapted for the template by  Wim van der Kuil - Leuven-Template.eu

Weather Terms: Heat Advisory - Maximum heat index of 105 to 110°F with a minimum of 75°F for two or more consecutive days.